Tracking 26955 objects as of 2-Feb-2023
HD Live streaming from Space Station
objects crossing your sky now

LEMUR 2 FURIAUS

Track LEMUR 2 FURIAUS now!
10-day predictions
LEMUR 2 FURIAUS is classified as:


NORAD ID: 42840
Int'l Code: 2017-042R
Perigee: 582.1 km
Apogee: 598.4 km
Inclination: 97.4 °
Period: 96.3 minutes
Semi major axis: 6961 km
RCS: Unknown
Launch date: July 14, 2017
Source: United States (US)
Launch site: TYURATAM MISSILE AND SPACE COMPLEX (TTMTR)
Your satellite tracking list
Your tracking list is empty




NASA's NSSDC Master Catalog

Two Line Element Set (TLE):
1 42840U 17042R   23033.56675311  .00005250  00000-0  48715-3 0  9997
2 42840  97.4059 243.3953 0011724 311.4131  48.6082 14.94766873302606
Source of the keplerian elements: AFSPC